CZ-6A DEB, 54954

Orbit data source: Space-Track

CZ-6A DEB, 54954 is space debris in SSO originally from a launch on Fri, 11 Nov 2022 UTC launched from the Taiyaun Space Center, China (TSC). Debris objects in space refer to the collection of defunct objects orbiting the Earth. Examples of debris include non-operational satellites, rocket bodies, and fragments generated from explosions, collisions, or faulty payload assembly.

Loading next visibility...
Identifier
54954, 2022-151ST
Orbit
SSO
Country
Flag of CNCN / PRC
Related business
Manufacturer
SAST
Mission
Spacecraft
Bus & Motor
Unknown
Mass
Unknown
Launch date (UTC)
2022-11-11 (4 years ago)
Launch vehicle
Unknown
Launch site
Taiyaun Space Center, China (TSC)
Object type
Payload
Rocket body
Debris
Shape & HBR
Unknown shape, 0.1 m
Radar Cross Section
Small (<0.1 m²)

Expand to show TLE details & history
Last TLE update: 18 hours ago

TLE from 18 hours ago
0 CZ-6A DEB
1 54954U 22151ST  26264.13950336  .00003167  00000-0  62769-3 0  9998
2 54954  98.6099 325.0074 0089303  13.5483 346.8083 14.60508868203595
Epoch: 2026-09-21T03:20Z
TLE epoch observation values (Epoch: 2026-09-21T03:20:53.090Z)
Latitude
-0.00004°
Longitude
-85.23742°
Altitude
633.053 km
Speed
7.574 km/s
True Right ascension
21h 40m 01s
True Declination
0° 00' 00"
Sunlit
Object was in full shadow at epoch
Visualization orbit readout
Latitude
Unknown
Longitude
Unknown
Altitude
Unknown
Speed
Unknown
Apparent Right ascension
Unknown
Apparent Declination
Unknown
Sunlit
N/A
Visualization observer readout
Local Sidereal Time
14:06:29
Azimuth
Unknown
Elevation
Unknown
Doppler factor
Unknown
Orbital elements
Apogee altitude
751.739 km
Perigee altitude
625.523 km
Semi-major axis
7,066.768 km
Eccentricity
0.00893
Inclination
98.6099°
RAAN
325.0074°
Arg. of periapsis
13.5483°
True anomaly
346.5722°
Mean anomaly
346.8083°
Eccentric anomaly
346.69051°
Mean motion
3.65352 °/min
Orbital period
98.54 mins
BSTAR
0.00062769
Loading maneuver chart data...
Computing Atmospheric mass density...
Loading historical data...
Loading historical data...
Loading historical data...
Loading historical data...
Loading historical data...
Loading historical data...
Loading historical data...

Documentation

Showing up to 5 results
|